Location: Althorst
(53.6379°N, 10.7715°E)
Time: 17:01:19
(UTC+00:00)

YAOGAN 6 - Pass Details

Date: 10 December 2019
Orbit: 466 x 504 km, 97.0° (Epoch: 22 January)

Event Time Altitude Azimuth Distance (km) Brightness Sun altitude
Rises 17:40:10 0° 181° (S) 2,518 6.3 -22.7°
Reaches altitude 10° 17:42:16 10° 188° (S) 1,651 5.4 -23.0°
Maximum altitude 17:45:40 43° 262° (W) 687 3.7 -23.5°
Drops below altitude 10° 17:49:09 10° 335° (NNW) 1,687 5.5 -24.0°
Sets 17:51:19 0° 342° (NNW) 2,581 6.4 -24.4°
